Regional Weather Roundup
Issued by NWS

Home | Current Version | Previous Version | Text Only | Print | Product List | Glossary On
Versions: 1 2 3 4 5 6 7 8 9 10 11 12 13 14 15 16 17 18 19 20 21 22 23 24 25 26 27 28 29 30 31 32 33 34 35 36 37 38 39 40 41 42 43 44 45 46 47 48 49 50
000
ASUS43 KTOP 242108
RWRKS

WEATHER ROUNDUP FOR KANSAS
NATIONAL WEATHER SERVICE GOODLAND KS
400 PM CDT TUE APR 24 2018

NOTE:  "FAIR" INDICATES FEW OR NO CLOUDS BELOW 12,000 FEET WITH NO
SIGNIFICANT WEATHER AND/OR OBSTRUCTIONS TO VISIBILITY.

KSZ001>006-013>018-027>032-041>047-242200-
NORTHWEST KANSAS

CITY           SKY/WX    TMP DP  RH WIND       PRES   REMARKS
GOODLAND       CLOUDY    43  37  79 N25G36    30.31F
HAYS           CLOUDY    45  42  89 NW22      30.25S
HILL CITY      LGT RAIN  45  42  89 NW16G24   30.30S
RUSSELL        CLOUDY    47  46  97 NW20      30.24S
$$

KSZ061>065-074>080-084>089-242200-
SOUTHWEST KANSAS

CITY           SKY/WX    TMP DP  RH WIND       PRES   REMARKS
DODGE CITY     CLOUDY    47  40  76 N22G32    30.26S
ELKHART        CLOUDY    46  40  81 N23G30    30.29F
GARDEN CITY    CLOUDY    43  38  82 N22       30.29S
GREAT BEND       N/A     51  45  79 N22       30.23F
LIBERAL        CLOUDY    50  39  66 N25G32    30.26F
PRATT          CLOUDY    56  45  66 N23       30.21S
$$

KSZ066>073-081>083-090>101-242200-
SOUTHEAST KANSAS

CITY           SKY/WX    TMP DP  RH WIND       PRES   REMARKS
CHANUTE        MOSUNNY   76  33  21 NW6G16    30.07F
COFFEYVILLE    SUNNY     77  36  22 NE6       30.05F
HUTCHINSON     PTSUNNY   60  47  61 NW16G26   30.16S
MEDICINE LODGE   N/A     64  48  56 N21G33    30.15S
NEWTON         CLOUDY    64  49  57 NW22      30.13S
PARSONS        SUNNY     78  35  21 N9G17     30.07F
WICHITA INTL   CLOUDY    72  49  44 NW24G35   30.12R
WICHITA JABRA  MOSUNNY   71  49  45 NW20G33   30.11S
WICHITA MCCONL PTSUNNY   71  47  41 NW26      30.10S
WINFIELD       SUNNY     77  40  26 N7        30.09F
$$

KSZ007>012-019>026-033>040-048>060-102>105-242200-
NORTHEAST KANSAS

CITY           SKY/WX    TMP DP  RH WIND       PRES   REMARKS
CONCORDIA      LGT RAIN  49  46  90 N13       30.20F
EMPORIA        CLOUDY    74  33  22 N6        30.08S
LAWRENCE       CLOUDY    80  34  19 NW15      30.05F
MANHATTAN      CLOUDY    63  45  51 NW10G25   30.13R
MARYSVILLE     CLOUDY    59  45  58 NW16G24   30.17R
OLATHE IND     SUNNY     76  36  23 N12       30.07F
OLATHE EXE     SUNNY     74  34  23 N12       30.06F
SALINA         CLOUDY    60  48  64 NW22G29   30.18S
TOPEKA BILLARD CLOUDY    79  36  21 N10G21    30.07F
TOPEKA FORBES  CLOUDY    78  34  20 NW10G23   30.07F
$$




USA.gov is the U.S. government's official web portal to all federal, state and local government web resources and services.